This demonstration page uses our WeatherBlox Daily Observations layout. Learn more.

Left ArrowRight Arrow

Hourly Observations for July 29, 2018

Temp ( °F °C ) Dew Point ( °F °C ) Humidity (%) Winds ( mph kmh ) Pressure ( in mb ) Visibility ( mi km ) Precip ( " mm )
12:31 am 00:31 Mostly Cloudy with Thunderstorms 86 30 62 16.7 45 45 WNW 13 20 29.83 1010 10 16.0934 N/A
12:51 am 00:51 Cloudy with Thunderstorms 85 29.4 60 15.6 43 43 W 14 22 29.89 1012 10 16.0934 N/A
12:59 am 00:59 Mostly Cloudy with Nearby Thunderstorms 84 28.9 59 15 43 43 WNW 20 31 29.85 1011 10 16.0934 N/A
1:25 am 01:25 Mostly Clear 82 27.8 63 17.2 53 53 NW 20 31 29.88 1012 10 16.0934 N/A
1:51 am 01:51 Clear 82 27.8 63 17.2 53 53 NW 22 35 29.89 1012 10 16.0934 N/A
2:51 am 02:51 Clear 82 27.8 63 17.2 53 53 NW 14 22 29.88 1012 10 16.0934 N/A
3:51 am 03:51 Clear 81 27.2 65 18.3 58 58 W 12 19 29.87 1012 10 16.0934 N/A
4:51 am 04:51 Clear 77 25 66 18.9 69 69 NW 14 22 29.87 1012 10 16.0934 N/A
5:51 am 05:51 Sunny 77 25 65 18.3 66 66 WNW 8 13 29.9 1013 10 16.0934 N/A
6:51 am 06:51 Sunny 79 26.1 65 18.3 62 62 W 9 15 29.91 1013 10 16.0934 N/A
7:51 am 07:51 Sunny 79 26.1 63 17.2 58 58 NNW 8 13 29.92 1013 10 16.0934 N/A
8:51 am 08:51 Sunny 83 28.3 62 16.7 49 49 WNW 9 15 29.91 1013 10 16.0934 N/A
9:51 am 09:51 Sunny 87 30.6 61 16.1 42 42 WNW 10 17 29.89 1012 10 16.0934 N/A
10:51 am 10:51 Sunny 93 33.9 61 16.1 34 34 W 10 17 29.87 1012 10 16.0934 N/A
11:51 am 11:51 Sunny 96 35.6 60 15.6 30 30 W 17 28 29.84 1011 10 16.0934 N/A
12:51 pm 12:51 Sunny 99 37.2 55 12.8 23 23 W 17 28 29.81 1010 10 16.0934 N/A
1:51 pm 13:51 Sunny 101 38.3 52 11.1 19 19 WNW 13 20 29.79 1009 10 16.0934 N/A
2:51 pm 14:51 Sunny 102 38.9 51 10.6 18 18 W 14 22 29.75 1008 10 16.0934 N/A
3:51 pm 15:51 Sunny with Nearby Thunderstorms 103 39.4 48 8.9 16 16 W 8 13 29.75 1007 10 16.0934 N/A
4:08 pm 16:08 Partly Cloudy 102 39 52 11 18 18 N 23 37 29.62 1003 10 16.0934 N/A
4:22 pm 16:22 Mostly Cloudy 102 39 50 10 17 17 N 13 20 29.62 1003 10 16.0934 N/A
4:51 pm 16:51 Sunny 102 38.9 49 9.4 17 17 NE 18 30 29.75 1007 10 16.0934 N/A
4:58 pm 16:58 Sunny 100 38 50 10 18 18 NE 17 28 29.65 1004 10 16.0934 N/A
5:51 pm 17:51 Sunny 95 35 53 11.7 24 24 ENE 20 31 29.78 1009 10 16.0934 N/A
6:51 pm 18:51 Mostly Sunny 93 33.9 51 10.6 24 24 N N/A 29.81 1010 10 16.0934 N/A
7:51 pm 19:51 Mostly Cloudy 91 32.8 54 12.2 28 28 S 6 9 29.85 1011 10 16.0934 N/A
8:51 pm 20:51 Clear 87 30.6 57 13.9 36 36 NW 16 26 29.87 1011 10 16.0934 N/A
9:51 pm 21:51 Clear 87 30.6 59 15 39 39 N N/A 29.88 1012 10 16.0934 N/A
10:51 pm 22:51 Clear 85 29.4 58 14.4 40 40 NW 12 19 29.86 1011 10 16.0934 N/A
11:51 pm 23:51 Clear 86 30 57 13.9 37 37 NNW 6 9 29.85 1011 10 16.0934 N/A

Powered by AerisWeather